1,427,530개(461/71377페이지)
LECTURE
번호 제목 글쓴이 조회 날짜
1418330 Proses Gampang Melibas LAWAN DALAM BERMA CortezFinley1652 1 2022.04.27 01:45
1418329 Life Extension BioActive Complete BCompl 사진 FitzsimmonsFleming1573 1 2022.04.27 01:45
1418328 Trik Main Judi Online Biar Peruntungan CollierHouse1794 4 2022.04.27 01:45
1418327 Aliran Registrasi Di Agen Judi Online Ya VestergaardHartmann5489 3 2022.04.27 01:45
1418326 非常不錯小说 戰神狂飆- 第5187章一发不可收拾 耽耽逐逐 明日天涯 閲讀-p 사진 NixonPollock2168 6 2022.04.27 01:45
1418325 Megagame Review - Carry out Slot Free wi MaynardKara8931 3 2022.04.27 01:45
1418324 10 Superior Linkedin Strategies To Imple RaahaugeMcMahon2054 3 2022.04.27 01:45
1418323 What's An Earnings Assertion WyattTermansen1935 2 2022.04.27 01:45
1418322 Why It Pays to be able to Work With a Pr FreemanMaher9499 3 2022.04.27 01:45
1418321 The Ultimate Information To Influencer A MaciasOwens3733 7 2022.04.27 01:45
1418320 "Zły Także Zagraniczne Demony" 사진 OddershedeMadden5829 3 2022.04.27 01:45
1418319 Information To Financial Institution Rec KirkpatrickByrne7212 6 2022.04.27 01:44
1418318 Can I place HID light bulbs in my supply 사진 KlitParsons1058 5 2022.04.27 01:44
1418317 What do you understand about LED cars an 사진 MahoneyGuy4502 13 2022.04.27 01:44
1418316 Are demon eye fronts lights legal? 사진 LawrenceMcKnight6091 3 2022.04.27 01:44
1418315 Are demon eye fronts lights legal? 사진 LawrenceMcKnight6091 3 2022.04.27 01:44
1418314 Teknik Hindarkan Rugi Taruhan Judi Onlin DohnLindhardt0671 0 2022.04.27 01:44
1418313 Six Shortcuts For Neon Sign That Gets Yo KofoedKeegan1952 2 2022.04.27 01:44
1418312 Find Out How To Make Neon Sign HyllestedEwing9284 1 2022.04.27 01:44
1418311 Permainan Di Tempat Gambling Permainan P DreyerShore5110 2 2022.04.27 01:44